Armorel, AR

4:17 PM CDT on September 25, 2016 (GMT -0500)
Blytheville Municipal

Weather History for KHKA - April, 2013

Change the Weather History Date:

Thursday, April 18, 2013

  Actual Average Record
Temperature  
Mean Temperature 62 °F -  
Max Temperature 78 °F 72 °F 93 °F (2006)
Min Temperature 46 °F 53 °F 32 °F (1953)
Degree Days  
Heating Degree Days 4    
Growing Degree Days 12 (Base 50)    
Moisture  
Dew Point 58 °F    
Average Humidity 81    
Maximum Humidity 100    
Minimum Humidity 58    
Precipitation  
Precipitation 1.86 in - - ()
Sea Level Pressure  
Sea Level Pressure 29.74 in    
Wind  
Wind Speed 17 mph (WSW)    
Max Wind Speed 28 mph    
Max Gust Speed 38 mph    
Visibility 7 miles    
Events Rain , Thunderstorm    
Averages and records for this station are not official NWS values.
T = Trace of Precipitation, MM = Missing Value Source: NWS Daily Summary

Daily Weather History Graph

Daily Weather History Graph

Search for Another Location

Airport or City:

Trip Planner

Search our weather history database for the weather conditions in past years. The results will help you decide how hot, cold, wet, or windy it might be!

Date:

Astronomy

Apr. 18, 2013 Rise Set
Actual Time 6:22 AM CDT 7:35 PM CDT
Civil Twilight 5:55 AM CDT 8:02 PM CDT
Nautical Twilight 5:23 AM CDT 8:34 PM CDT
Astronomical Twilight 4:50 AM CDT 9:07 PM CDT
Moon 12:35 PM CDT (4/18) 1:47 AM CDT (4/18)
Length of Visible Light 14h 06m
Length of Day
13h 13m
First Quarter, 52% of the Moon is Illuminated
Apr 18
First Quarter
Apr 25
Full
May 2
Last Quarter
May 9
New
May 17
First Quarter

Hourly Weather History & Observations

Time (CDT) Temp. Windchill Dew Point Humidity Pressure Visibility Wind Dir Wind Speed Gust Speed Precip Events Conditions
12:53 AM 75.0 °F - 66.0 °F 73% 29.83 in 10.0 mi South 15.0 mph - N/A   Clear
1:53 AM 75.0 °F - 66.0 °F 73% 29.81 in 10.0 mi South 13.8 mph - N/A   Clear
2:53 AM 75.0 °F - 66.0 °F 73% 29.78 in 10.0 mi South 17.3 mph - N/A   Clear
3:53 AM 73.9 °F - 66.0 °F 76% 29.78 in 10.0 mi South 16.1 mph 24.2 mph N/A   Scattered Clouds
4:53 AM 73.0 °F - 66.0 °F 79% 29.79 in 10.0 mi South 15.0 mph 23.0 mph N/A   Mostly Cloudy
5:53 AM 73.0 °F - 64.9 °F 76% 29.78 in 10.0 mi South 20.7 mph 29.9 mph N/A   Partly Cloudy
6:53 AM 73.0 °F - 64.0 °F 73% 29.79 in 10.0 mi South 16.1 mph 26.5 mph N/A   Partly Cloudy
7:53 AM 73.0 °F - 64.0 °F 73% 29.79 in 10.0 mi South 23.0 mph 31.1 mph N/A   Mostly Cloudy
8:53 AM 73.9 °F - 63.0 °F 68% 29.78 in 10.0 mi South 18.4 mph 33.4 mph N/A   Mostly Cloudy
9:53 AM 75.0 °F - 62.1 °F 64% 29.78 in 10.0 mi South 20.7 mph 36.8 mph N/A   Mostly Cloudy
10:53 AM 77.0 °F - 61.0 °F 58% 29.78 in 10.0 mi SSW 24.2 mph 38.0 mph N/A   Scattered Clouds
11:53 AM 77.0 °F - 63.0 °F 62% 29.76 in 10.0 mi SSW 24.2 mph 31.1 mph N/A   Mostly Cloudy
12:53 PM 77.0 °F - 62.1 °F 60% 29.74 in 10.0 mi South 23.0 mph 36.8 mph N/A   Mostly Cloudy
1:53 PM 77.0 °F - 61.0 °F 58% 29.71 in 10.0 mi South 25.3 mph 36.8 mph N/A   Partly Cloudy
2:53 PM 77.0 °F - 62.1 °F 60% 29.68 in 10.0 mi South 17.3 mph 29.9 mph N/A   Scattered Clouds
3:53 PM 75.9 °F - 61.0 °F 60% 29.64 in 10.0 mi South 18.4 mph 25.3 mph N/A   Overcast
4:02 PM 75.2 °F - 60.8 °F 61% 29.65 in 10.0 mi South 16.1 mph 25.3 mph N/A Thunderstorm Overcast
4:48 PM 71.6 °F - 64.4 °F 78% 29.65 in 10.0 mi South 9.2 mph - 0.11 in Rain Light Rain
4:53 PM 71.1 °F - 64.9 °F 81% 29.65 in 6.0 mi South 8.1 mph - 0.12 in Rain Rain
5:16 PM 69.8 °F - 66.2 °F 88% 29.66 in 2.0 mi SSW 8.1 mph - 0.11 in Rain Heavy Rain
5:29 PM 69.8 °F - 66.2 °F 88% 29.65 in 3.0 mi SSW 6.9 mph - 0.18 in Rain Heavy Rain
5:36 PM 69.8 °F - 66.2 °F 88% 29.66 in 2.5 mi SSW 9.2 mph - 0.22 in Rain Heavy Rain
5:53 PM 68.0 °F - 66.0 °F 93% 29.66 in 2.0 mi West 9.2 mph - 0.32 in Rain Heavy Rain
6:02 PM 66.2 °F - 64.4 °F 94% 29.67 in 2.0 mi West 11.5 mph - 0.07 in Rain Heavy Rain
6:09 PM 64.4 °F - 62.6 °F 94% 29.67 in 3.0 mi NW 15.0 mph 24.2 mph 0.11 in Rain Heavy Rain
6:16 PM 64.4 °F - 62.6 °F 94% 29.67 in 3.0 mi WNW 18.4 mph 26.5 mph 0.16 in Rain Heavy Rain
6:19 PM 64.4 °F - 62.6 °F 94% 29.68 in 2.0 mi WNW 17.3 mph 26.5 mph 0.19 in Rain Heavy Rain
6:27 PM 60.8 °F - 59.0 °F 94% 29.68 in 1.2 mi NW 25.3 mph 35.7 mph 0.29 in Rain Heavy Rain
6:41 PM 57.2 °F - 55.4 °F 94% 29.67 in 3.0 mi NW 20.7 mph 29.9 mph 0.46 in Rain Heavy Rain
6:53 PM 55.9 °F - 55.0 °F 97% 29.68 in 4.0 mi NW 19.6 mph 28.8 mph 0.57 in Rain Heavy Rain
7:39 PM 51.8 °F - 51.8 °F 100% 29.74 in 4.0 mi WNW 17.3 mph 26.5 mph 0.29 in Rain Heavy Rain
7:53 PM 52.0 °F - 51.1 °F 97% 29.74 in 2.5 mi WNW 16.1 mph 23.0 mph 0.40 in Rain Heavy Rain
7:55 PM 51.8 °F - 51.8 °F 100% 29.74 in 3.0 mi WNW 18.4 mph 26.5 mph 0.02 in Rain Heavy Rain
8:02 PM 51.8 °F - 50.0 °F 94% 29.72 in 4.0 mi NW 17.3 mph 26.5 mph 0.07 in Rain Rain
8:35 PM 50.0 °F - 48.2 °F 94% 29.75 in 3.0 mi NW 19.6 mph 29.9 mph 0.26 in Rain Heavy Rain
8:53 PM 48.9 °F - 46.9 °F 93% 29.78 in 10.0 mi WNW 27.6 mph 33.4 mph 0.29 in Rain Light Rain
9:16 PM 48.2 °F - 46.4 °F 93% 29.77 in 4.0 mi NW 20.7 mph 26.5 mph 0.08 in Rain Heavy Rain
9:39 PM 48.2 °F - 46.4 °F 93% 29.80 in 9.0 mi NW 19.6 mph 25.3 mph 0.12 in Rain Rain
9:53 PM 48.0 °F - 45.0 °F 89% 29.79 in 8.0 mi NW 18.4 mph 25.3 mph 0.15 in Rain Rain
10:53 PM 46.9 °F - 42.1 °F 83% 29.83 in 10.0 mi NW 19.6 mph 27.6 mph 0.01 in   Overcast
11:50 PM 46.4 °F 39.2 °F 39.2 °F 76% 29.86 in 10.0 mi NW 18.4 mph 26.5 mph 0.00 in   Overcast
11:53 PM 46.0 °F 39.0 °F 39.0 °F 76% 29.86 in 10.0 mi NW 17.3 mph 24.2 mph 0.00 in   Overcast